Regional Weather Roundup
Issued by NWS Wakefield, VA

Home | Current Version | Previous Version | Text Only | Print | Product List | Glossary On
Versions: 1 2 3 4 5 6 7 8 9 10 11 12 13 14 15 16 17 18 19 20 21 22 23 24 25 26 27 28 29 30 31 32 33 34 35 36 37 38 39 40 41 42 43 44 45 46 47 48 49 50
000
ASUS41 KAKQ 291014
RWRAKQ

REGIONAL WEATHER ROUNDUP
NATIONAL WEATHER SERVICE WAKEFIELD VA
600 AM EDT SAT AUG 29 2015

Note: "fair" indicates few or no clouds below 12,000 feet with no
significant weather and/or obstructions to visibility. * = Denotes
station may not report precipitation (e.g., rain,snow,etc.),
thunder or fog.

VAZ042-051-052>054-056-291100-
NORTHERN VIRGINIA

CITY           SKY/WX    TMP DP  RH WIND       PRES   REMARKS
WASH NATIONAL  PTCLDY    67  61  81 S6        30.20S
DULLES         PTCLDY    65  59  81 S6        30.19S
FORT BELVOIR   CLEAR     60  59  95 CALM      30.20R
QUANTICO       PTCLDY    66  61  84 W3        30.21S
FREDERICKSBRG* PTCLDY    63  63  99 CALM      30.19F
STAFFORD*      MOCLDY    58  57  96 CALM      30.24S FOG
WARRENTON      PTCLDY    64  62  91 CALM      30.19S
CULPEPER*      MOCLDY    60  60  99 CALM      30.20S
MANASSAS*      CLEAR     63  63 100 CALM      30.19S
LEESBURG*      CLEAR     63  63 100 CALM      30.20S
WINCHESTER     CLEAR     59  59 100 CALM      30.19R
FRONT ROYAL*   FAIR      59  59 100 CALM      30.18S
LURAY*           N/A     59  59 100 CALM      30.20R FOG
$$

VAZ048-049-060>072-079>083-291100-
CENTRAL AND SOUTH CENTRAL VIRGINIA

CITY           SKY/WX    TMP DP  RH WIND       PRES   REMARKS
RICHMOND       PTCLDY    65  59  81 CALM      30.20S
CHESTERFIELD*  FAIR      59  48  67 CALM      30.22R
PETERSBURG*    PTCLDY    58  58 100 CALM      30.21S
HANOVER        MOCLDY    61  59  93 CALM      30.22S
TAPPAHANNOCK*  CLEAR     59  56  90 CALM      30.21S
QUINTON*       PTSUNNY   59  58  97 CALM      30.20S
CHARLOTTSVILLE CLEAR     63  60  90 CALM      30.20S
GORDONSVILLE*  FAIR      60  59  97 CALM      30.20S
ORANGE*        PTCLDY    61  61 100 CALM      30.21S
LOUISA*        PTCLDY    64  59  82 CALM      30.20S
BUMPASS*       FAIR      60  58  94 MISG      30.21R
FARMVILLE*     CLOUDY    61  61 100 CALM      30.20R
CREWE*         PTSUNNY  N/A N/A N/A CALM      30.20S
FORT PICKETT*  FAIR      59  58  96 CALM      30.20S
CHASE CITY*    PTSUNNY   63  63 100 CALM      30.21R
CLARKSVILLE*   PTSUNNY   59  59 100 CALM      30.21R
SOUTH HILL*    PTCLDY    57  56  97 CALM      30.26R
LAWRENCEVILLE* FAIR      59  57  94 CALM      30.20S
EMPORIA*       CLEAR     54  54 100 CALM      30.21S FOG
$$

VAZ088>098-291100-
SOUTHEAST VIRGINIA

CITY           SKY/WX    TMP DP  RH WIND       PRES   REMARKS
NORFOLK        CLEAR     67  61  81 CALM      30.18S
VIRGINIA BEACH CLEAR     64  58  80 CALM      30.18R
NORFOLK NAVAL  PTCLDY    63  59  87 CALM      30.20S
WEST POINT*    CLEAR     59  56  92 CALM      30.21S
SALUDA*        FAIR      60  58  94 MISG      30.19S
NEWPORT NEWS   CLEAR     59  57  93 CALM      30.19R
LANGLEY AFB    CLEAR     61  59  93 NW2       30.18S
FORT EUSTIS    CLEAR     63  63 100 CALM      30.18R
WILLIAMSBURG*  CLEAR     64  63  94 CALM      30.21R
HR EXEC AP*      N/A     52  48  87 CALM      30.22R
FRANKLIN*      CLEAR     55  55  97 CALM      30.20S
WAKEFIELD      CLEAR     57  55  93 CALM      30.20S
$$

VAZ020-022-025-037-045-291100-
WEST CENTRAL AND SOUTHWEST VIRGINIA

CITY           SKY/WX    TMP DP  RH WIND       PRES   REMARKS
STAUNTON*      CLEAR     61  58  90 CALM      30.23S
WAYNESBORO*    FAIR      61  58  89 CALM      30.22S
HOT SPRINGS VA CLEAR     61  55  78 SW8       30.29S
LYNCHBURG      CLEAR     58  58 100 CALM      30.23S
DANVILLE       PTCLDY    60  57  89 CALM      30.21S
SOUTH BOSTON*  PTSUNNY   58  57  96 CALM      30.21R
MARTINSVILLE   CLEAR     56  56 100 CALM      30.25R FOG
ROANOKE        MOCLDY    63  59  87 CALM      30.24R
BLACKSBURG     CLOUDY    61  61  99 CALM      30.29S
DUBLIN*        CLOUDY    62  62 100 CALM      30.27R
MARION*        PTCLDY    58  56  94 CALM      30.30R FOG
HILLSVILLE*    CLEAR     60  56  88 S3        30.27R
RICHLANDS*     FAIR      65  24  21 CALM      30.26R
WISE*          MOCLDY    66  54  63 S6        30.26R
ABINGDON*      PTCLDY    62  58  86 CALM      30.24R
$$

MDZ021>025-VAZ099-100-291100-
SOUTHERN MARYLAND AND THE DELMARVA PENINSULA

CITY           SKY/WX    TMP DP  RH WIND       PRES   REMARKS
PATUXENT RIVER CLEAR     60  58  92 CALM      30.20R
BAY BRIDGE APT   N/A     72  63  73 SW5       30.20R
LEONARDTOWN    MOCLDY    61  59  94 CALM      30.22R
DOVER          CLEAR     64  59  83 SW5       30.18R
GEORGETOWN     CLEAR     58  55  90 CALM      30.21R
EASTON         MOCLDY    63  63 100 CALM      30.23
CAMBRIDGE      CLEAR     59  55  88 CALM      30.19S
SALISBURY      CLEAR     57  54  89 CALM      30.20R
OCEAN CITY     CLEAR     58  55  90 CALM      30.20S
WALLOPS ISLAND CLEAR     61  58  90 CALM      30.20S
ACCOMACK*      CLEAR     54  54 100 CALM      30.20R
$$

NCZ012>017-030>032-291100-
NORTH CENTRAL AND EASTERN NORTH CAROLINA

CITY           SKY/WX    TMP DP  RH WIND       PRES   REMARKS
ROANOKE RAPIDS FAIR      55  55 100 CALM      30.19S FOG
RALEIGH        PTCLDY    60  58  92 CALM      30.21R
ELIZABETH CITY PTCLDY    68  64  87 N6        30.18R
AHOSKIE*       PTCLDY    56  55  94 CALM      30.19S
EDENTON*       CLEAR     62  60  94 CALM      30.18S
CURRITUCK*     CLEAR     63  60  90 CALM      30.19R
KILL DEVIL HLS CLEAR     74  64  71 NE6       30.15S
MANTEO         CLEAR     73  66  78 NE8       30.16S
CAPE HATTERAS  CLOUDY    76  70  82 NE8       30.13S
TARBORO*       FAIR      55  54  96 CALM      30.19S FOG
GOLDSBORO      CLEAR     63  62  96 NW3       30.16R
WASHINGTON     CLEAR     62  61  96 N3        30.17R
GREENVILLE       N/A     59  59 100 CALM      30.18S FOG
NEW BERN       CLEAR     68  65  90 N5        30.16R
WILMINGTON     CLEAR     67  64  90 N5        30.13R
$$

VAZ048-291100-
ELSEWHERE

CITY           SKY/WX    TMP DP  RH WIND       PRES   REMARKS
HARRISBURG PA  PTCLDY    61  57  87 E3        30.18S
BALTIMORE      PTCLDY    62  59  90 CALM      30.19S
ANNAPOLIS      CLOUDY    68  60  75 CALM      30.19R
ANDREWS AFB    PTCLDY    62  59  90 S3        30.19S
PHILADELPHIA   PTCLDY    66  57  72 CALM      30.20S
HENDERSON NC   PTCLDY    61  58  91 CALM      30.21R
GREENSBORO     MOCLDY    64  60  87 N3        30.21R
ROCKY MOUNT    CLEAR     59  58  96 NE3       30.19R
$$

VAZ100-291100-
MARINE

STATION/POSITION TIME  TEMP    WIND        PRES    WAVE   SWELL
                       AIR SEA DIR/SP/G            HT/PER HT/PER
                 (UTC) (F)     (DEG/KT/KT) (MB)    (FT/S) (FT/S)
15NM E FENWICK I 0950   74 78  250/  4/  6 1022.6S   3/11   3/11
CHESAPEAKE LGHT  0900   75      70/  9/ 10 1022.6F
CAPE HENRY BUOY  0928      78                N/A     3/10   2/11
CAPE CHARLES BUO 0926      78                N/A     3/11   3/11
OFFSHORE WE BUOY 0911      78                N/A     3/10   3/10
64NM E OF VA BCH 0950   76 79   50/ 10/ 14 1021.3R   4/10   3/10
44100 DUCK FRF   0924      77                N/A     4/10   2/11
44056 DUCK FRF   0911      78                N/A     3/12   2/12
DIAMOND SHLS NC  0950   78 82   40/ 16/ 19 1019.6R   5/11   3/11
CAPE LOOKOUT NC  1000   78      40/ 19/ 23 1019.4F
$$



USA.gov is the U.S. government's official web portal to all federal, state and local government web resources and services.